Regional Weather Roundup
Issued by NWS

Home | Current Version | Previous Version | Text Only | Print | Product List | Glossary Off
Versions: 1 2 3 4 5 6 7 8 9 10 11 12 13 14 15 16 17 18 19 20 21 22 23 24 25 26 27 28

000
ASUS45 KGTF 271410
RWRMT
MONTANA HOURLY WEATHER ROUNDUP
NATIONAL WEATHER SERVICE GREAT FALLS MT
800 AM MDT MON APR 27 2015

NOTE: "FAIR" INDICATES FEW OR NO CLOUDS BELOW 12000 FEET WITH NO
SIGNIFICANT WEATHER AND/OR OBSTRUCTIONS TO VISIBILITY.

MTZ001>007-043-271500-
WEST OF THE DIVIDE

CITY           SKY/WX    TMP DP  RH WIND       PRES   REMARKS
KALISPELL      CLOUDY    32  31  96 CALM      30.34R
MISSOULA       CLOUDY    37  35  92 W5        30.39R
BUTTE          MOSUNNY   27  23  85 CALM      30.34R
DEER LODGE       N/A     32  28  86 S3        30.38S
EUREKA           N/A     36  28  75 CALM      30.34R
HAMILTON         N/A     36  30  80 S7        30.37R WCI  30
LIBBY            N/A     32  27  80 CALM      30.36S
$$

MTZ008-052>055-271500-
SOUTHWEST MONTANA

CITY           SKY/WX    TMP DP  RH WIND       PRES   REMARKS
BOZEMAN        CLOUDY    34  33  96 W3        30.35R FOG
DILLON         PTSUNNY   32  29  88 W3        30.33R
$$

MTZ009-010-012-014-046-048-049-054-271500-
EAST SLOPES AND CENTRAL MONTANA

CITY           SKY/WX    TMP DP  RH WIND       PRES   REMARKS
CUT BANK       PTSUNNY   40  28  62 SW8       30.23R
GREAT FALLS    PTSUNNY   41  32  70 SW15      30.27R
HELENA         FOG       31  30  96 CALM      30.35R VSB 3/4
$$

MTZ011-013-016-021-045-047-050-051-271500-
NORTH CENTRAL MONTANA

CITY           SKY/WX    TMP DP  RH WIND       PRES   REMARKS
HAVRE          SUNNY     33  29  85 CALM      30.29R
LEWISTOWN      SUNNY     34  30  85 E3        30.30R
CHINOOK          N/A     32  28  86 E3        30.31R
FORT BENTON      N/A     37  30  75 CALM      30.31S
$$

MTZ017>020-022>042-056>058-061-062-271500-
EASTERN PLAINS

CITY           SKY/WX    TMP DP  RH WIND       PRES   REMARKS
BAKER          CLOUDY    38  36  92 NW10      30.32R WCI  31
BILLINGS       MOSUNNY   36  35  96 SW8       30.33R WCI  30
GLASGOW        CLOUDY    41  36  82 W5        30.31R
JORDAN           N/A     40  36  86 W7        30.32R
LIVINGSTON     MOSUNNY   37  31  78 NW7       30.32R WCI  32
MILES CITY     CLOUDY    39  37  92 W7        30.34R
SIDNEY         CLOUDY    43  37  81 W6        30.33R
WOLF POINT     CLOUDY    43  39  86 SW7       30.32R
BIG TIMBER       N/A     37  34  87 SW9       30.32R WCI  31
FORSYTH          N/A     39  37  93 W6        30.34R
PLENTYWOOD       N/A     41  39  93 CALM      30.29S
POPLAR           N/A     43  41  93 SW6       30.32R
$$

REGIONAL REPORTS...DAKOTAS

CITY           SKY/WX    TMP DP  RH WIND       PRES   REMARKS
WILLISTON      LGT RAIN  42  39  89 NW6       30.31R
MINOT          LGT RAIN  41  37  86 NW10      30.27R
DICKINSON      LGT RAIN  40  37  89 NW10      30.27R FOG
BEACH          CLOUDY    37  37 100 NW8       30.32R WCI  31
CROSBY         CLOUDY    39  39 100 CALM      30.31R
WATFORD CITY   CLOUDY    39  39 100 NW8       30.29R
BISMARCK       CLOUDY    47  45  93 N7        30.24R
GRAND FORKS    MOSUNNY   50  43  77 NW5       30.21R
FARGO          MOSUNNY   52  27  38 SW3       30.23R
BUFFALO SD       N/A     39  38  96 NW18      30.22R WCI  30
RAPID CITY     CLOUDY    42  39  89 N21       30.26R
$$

REGIONAL REPORTS...WYOMING/IDAHO/WASHINGTON

CITY           SKY/WX    TMP DP  RH WIND       PRES   REMARKS
GILLETTE       CLOUDY    35  33  92 N10       30.30R WCI  27
SHERIDAN       CLOUDY    37  33  85 W3        30.33R
BUFFALO WY     CLOUDY    35  33  92 N5        30.30R
CODY           CLOUDY    36  34  93 SW3       30.31R
YELLOWSTONE LA   N/A     29  25  85 CALM      30.30R
IDAHO FALLS    SUNNY     35  30  82 N5        30.30R
SALMON         MOSUNNY   32  30  93 N3        30.36R
BOISE          SUNNY     39  27  62 SW5       30.31R
SPOKANE        PTSUNNY   41  29  62 E3        30.32R
$$

REGIONAL REPORTS...ALBERTA

CITY           SKY/WX    TMP DP  RH WIND       PRES   REMARKS
EDMONTON       PTSUNNY   37  28  70 SW7       30.08R
CALGARY        PTSUNNY   45  25  45 SE5       30.13R
LETHBRIDGE     MOSUNNY   45  28  53 SW14G21   30.18R
MEDICINE HAT   MOSUNNY   43  32  65 SW8       30.21R
$$

REGIONAL REPORTS...SASKATCHEWAN

CITY           SKY/WX    TMP DP  RH WIND       PRES   REMARKS
SWIFT CURRENT  SUNNY     41  34  75 S12       30.25R
SASKATOON      SUNNY     32  32 100 S6        30.28R WCI  26
$$



USA.gov is the U.S. government's official web portal to all federal, state and local government web resources and services.